Find Starlink 34660

NORAD ID: 64800 Int'l Des: 2025-150 Owner: SPXS Country: US Constellation: starlink operational
LEOCIRCULAR

現在のビュー

3D地球を読み込み中...

Starlink 34660について

説明を読み込み中...

次回通過

Passes for default location (London). Set your location on the main map for personalized predictions.

高度履歴

Loading altitude history...

軌道要素

1 64800U 25150L 26149.50417904 .00004313 00000-0 36894-3 0 9997
2 64800 70.0010 290.6276 0002777 258.7441 101.3406 14.98337897 48628
Epoch: May 29, 2026 • Age: 12 hours

現在のステータス

高度 585.1 km
速度 7.57 km/s
衛星直下点 -39.76°S, 125.26°W
打ち上げ日 Jul 16, 2025
運用期間 0.8 years
タイプ internet

技術仕様

分類 Payload
質量 575.00 kg
乾燥質量 530.00 kg
総質量 575.00 kg
長さ 0.30 m
直径 4.10 m
スパン 29.00 m
形状 Box + pan
製造者 SPXS
バスタイプ Starlink V2MO
フェーズステータス In Orbit
所有者/国 SPXS/US

Most Searched